This is the latest recevied weather packets stored in our database for station/object KB2M. If no packets are shown the sender has not sent any weather packets the latest 1 day(s).
| Time | Temp. | Humidity | Pressure | Rain* | Wind** | Luminosity | Snow |
|---|---|---|---|---|---|---|---|
| 1778037068 | 22.22° C | 64% | 1017.6 hPa | 0 mm | 1.34 m/s, 125° | - | - |
| 1778036468 | 22.22° C | 64% | 1017.9 hPa | 0 mm | 0.89 m/s, 148° | - | - |
| 1778035867 | 22.22° C | 64% | 1017.9 hPa | 0 mm | 1.34 m/s, 137° | - | - |
| 1778035266 | 22.78° C | 63% | 1017.6 hPa | 0 mm | 0.89 m/s, 116° | - | - |
| 1778034666 | 22.78° C | 61% | 1017.9 hPa | 0 mm | 1.34 m/s, 118° | - | - |
| 1778034066 | 22.78° C | 61% | 1017.6 hPa | 0 mm | 1.79 m/s, 103° | - | - |
| 1778033465 | 22.78° C | 61% | 1017.9 hPa | 0 mm | 1.34 m/s, 113° | - | - |
| 1778032864 | 22.78° C | 60% | 1017.9 hPa | 0 mm | 1.34 m/s, 116° | - | - |
| 1778032264 | 22.78° C | 58% | 1017.6 hPa | 0 mm | 0.89 m/s, 107° | - | - |
| 1778031663 | 22.78° C | 58% | 1017.9 hPa | 0 mm | 1.34 m/s, 104° | - | - |
| 1778031063 | 22.78° C | 58% | 1017.6 hPa | 0 mm | 0.89 m/s, 109° | - | - |
| 1778030462 | 22.78° C | 56% | 1017.9 hPa | 0 mm | 0.89 m/s, 87° | - | - |
| 1778029862 | 23.33° C | 56% | 1017.6 hPa | 0 mm | 1.34 m/s, 100° | - | - |
| 1778029261 | 22.78° C | 57% | 1017.6 hPa | 0 mm | 0.89 m/s, 113° | - | - |
| 1778028661 | 23.33° C | 55% | 1017.6 hPa | 0 mm | 0.89 m/s, 101° | - | - |
| 1778028060 | 23.33° C | 55% | 1017.6 hPa | 0 mm | 1.34 m/s, 83° | - | - |
| 1778027459 | 23.33° C | 57% | 1017.2 hPa | 0 mm | 1.34 m/s, 81° | - | - |
| 1778026859 | 23.33° C | 55% | 1017.2 hPa | 0 mm | 1.34 m/s, 93° | - | - |
| 1778026259 | 23.33° C | 55% | 1017.2 hPa | 0 mm | 0.89 m/s, 86° | - | - |
| 1778025658 | 23.33° C | 54% | 1016.9 hPa | 0 mm | 1.34 m/s, 83° | - | - |
| 1778025058 | 23.33° C | 53% | 1017.2 hPa | 0 mm | 1.79 m/s, 88° | - | - |
| 1778024457 | 23.89° C | 52% | 1017.2 hPa | 0 mm | 1.79 m/s, 75° | - | - |
| 1778023857 | 23.89° C | 53% | 1016.9 hPa | 0 mm | 1.79 m/s, 78° | - | - |
| 1778023256 | 23.89° C | 53% | 1017.2 hPa | 0 mm | 1.79 m/s, 65° | - | - |
| 1778022656 | 23.89° C | 55% | 1017.2 hPa | 0 mm | 2.24 m/s, 79° | - | - |
* Rain latest hour (hover to see other rain measurements)
** Current wind speed in m/s (hover to see current wind gust speed)